Location: Kalamazoo
(42.2920°N, 85.5870°W)
Time: 21:33:39
(UTC-04:00)

Daily predictions for brighter satellites

Satellite Brightness Start Highest point End
(mag) Time Altitude Azimuth Time Altitude Azimuth Time Altitude Azimuth
Cosmos 1110 Rocket 4.1 20:52:06 10° SSW 20:57:22 86° ESE 21:02:43 10° NNE
SL-8 R/B 4.3 20:53:28 10° WNW 20:58:10 53° SW 21:02:50 10° SE
Lacrosse 4 Rocket 3.1 20:56:03 10° N 20:59:15 20° NE 21:02:30 10° E
Cosmos 2227 Rocket 4.1 20:54:33 10° NW 20:59:31 32° WSW 21:04:27 10° SSW
CZ-2D R/B 3.4 20:56:16 10° SSE 21:00:06 61° ENE 21:03:58 10° N
Meteor 1-29 4.5 20:58:09 10° NE 21:00:39 18° E 21:03:07 10° SE
Resurs 1-3 3.6 20:56:57 10° SSE 21:01:19 70° ENE 21:05:41 10° N
Cosmos 1869 Rocket 3.8 20:59:54 10° N 21:04:20 56° E 21:08:43 10° SSE
Cosmos 1900 4.4 21:00:00 10° NNW 21:05:07 75° ENE 21:10:14 10° SE
Cosmos 1825 3.8 21:02:30 10° NNE 21:05:16 19° ENE 21:08:01 10° ESE
Cosmos 1302 Rocket 4.1 21:03:46 10° S 21:08:49 54° ESE 21:13:52 10° NNE
SL-16 R/B 3.2 21:04:20 10° SSE 21:08:51 25° ESE 21:13:22 10° NE
Envisat 3.6 21:04:20 10° SE 21:09:00 38° ENE 21:13:42 10° N
Milstar 3 4.1 21:04:33 10° WSW 21:11:36 28° S 21:17:13 10° SE
Cosmos 1939 Rocket 3.9 21:10:14 10° SE 21:13:46 29° ENE 21:17:16 10° N
DNEPR-1 R/B 4.2 21:09:46 10° SW 21:15:51 84° WNW 21:20:51 10° NNE
CZ-4B DEB 3.6 21:15:55 10° SE 21:18:39 31° ENE 21:21:23 10° N
ATLAS 5 CENTAUR R/B 3.9 21:14:24 10° NNW 21:18:54 22° NE 21:23:41 10° E
Meteor 2-20 4.5 21:19:12 10° N 21:25:16 64° E 21:31:20 10° SSE
OAO 3 Rocket 4.2 21:21:30 10° SW 21:25:46 30° SSE 21:29:18 14° ESE
USA 234 3.3 21:20:01 10° SE 21:26:32 80° NE 21:33:07 10° NW
Resurs 01 Rocket 2.6 21:25:39 10° S 21:29:57 49° W 21:34:18 10° NNW
Atlas Centaur 2 4.1 21:25:20 10° SSW 21:30:17 19° SSE 21:34:13 14° ESE
Helios 1A 3.0 21:27:48 10° SSE 21:32:01 76° ENE 21:36:17 10° N
GRACE-1 4.4 21:31:14 10° N 21:33:58 59° W 21:36:40 10° SSW
GRACE-2 4.4 21:31:39 10° N 21:34:22 60° W 21:37:04 10° SSW
Cosmos 2227 4.2 21:29:47 10° NNW 21:35:34 89° ENE 21:41:17 10° SSE
Molniya-1 2.2 21:35:04 10° SSW 21:36:44 69° SE 21:38:56 10° NE
SAR-Lupe-4 3.5 21:33:11 10° SSE 21:36:46 83° ENE 21:40:23 10° NNW
Cosmos 2360 4.3 21:31:24 10° SSW 21:37:08 85° WNW 21:42:55 10° NNE
FALCON 9 R/B 2.2 21:36:30 10° SSW 21:37:52 14° S 21:38:05 14° S
Cosmos 2142 Rocket 4.4 21:36:37 10° S 21:42:42 75° E 21:48:51 10° N
ERS-1 Rocket 3.5 21:42:11 17° SE 21:45:40 41° ENE 21:50:22 10° N
Cosmos 1408 2.6 21:43:50 10° N 21:47:31 62° E 21:50:05 18° SSE
Cosmos 1486 Rocket 4.4 21:43:01 10° NNW 21:48:12 64° WSW 21:53:23 10° S
ERBS 2.3 21:47:30 10° NW 21:50:59 83° NE 21:52:42 28° SE
Cosmos 1455 3.8 21:49:03 10° SSW 21:52:36 37° WNW 21:56:10 10° N
SAR-Lupe-1 4.3 21:50:59 11° S 21:54:19 69° WSW 21:57:54 10° NNW
Cosmos 1869 3.6 21:52:36 10° SSW 21:56:31 68° W 22:00:27 10° N
Cosmos 220 Rocket 4.0 21:54:58 10° NNW 21:59:28 89° SW 22:02:28 20° SSE
CZ-3B DEB 3.7 21:59:57 10° W 22:00:32 10° WSW 22:01:05 10° WSW
CENTAUR R/B 4.2 21:55:01 10° WSW 22:00:43 37° NW 22:07:10 10° NNE
SeaSat 1 3.3 22:00:11 22° ESE 22:02:37 36° NE 22:07:07 10° N
Cosmos 1992 Rocket 4.1 21:57:37 10° S 22:02:41 53° ESE 22:07:47 10° NNE
Cosmos 2026 Rocket 4.0 21:57:22 10° N 22:03:40 87° W 22:09:49 10° S
H-2A R/B 4.2 22:07:13 11° ENE 22:07:45 11° ENE 22:09:10 10° NE
Cosmos 1908 Rocket 4.3 22:06:10 10° N 22:10:08 34° ENE 22:11:04 30° ESE
MetOp-A 4.4 22:08:20 26° SE 22:11:04 51° ENE 22:16:15 10° N
USA 186 4.4 22:13:09 10° WSW 22:14:31 13° W 22:15:55 10° WNW
Cosmos 1933 3.2 22:14:41 24° S 22:16:59 73° E 22:21:02 10° NNE
Cosmos 1503 Rocket 4.3 22:14:08 10° NNW 22:19:22 66° WSW 22:22:48 21° S
Cosmos 1867 4.4 22:15:26 10° NNW 22:20:31 38° NE 22:22:40 27° E
COSMOS 2428 4.5 22:23:05 15° ENE 22:23:05 15° ENE 22:24:45 10° ENE
YAOGAN 6 2.7 22:20:14 34° S 22:21:43 74° WSW 22:25:22 10° NNW
Cosmos 2263 Rocket 2.1 22:16:15 10° NNW 22:21:50 73° ENE 22:24:22 33° SE
Cosmos 1354 Rocket 4.4 22:17:29 10° NNW 22:22:42 61° WSW 22:26:09 21° S
Abrixas rocket 3.4 22:20:14 10° W 22:23:23 42° NNW 22:25:18 20° NE
H-2A R/B 2.9 22:24:03 27° E 22:25:06 30° ENE 22:29:23 10° N
Cosmos 1655 Rocket 4.2 22:19:04 10° N 22:25:27 74° W 22:30:51 15° S
Cosmos 2322 Rocket 2.3 22:19:55 10° SSW 22:25:30 76° WNW 22:31:10 10° NNE
Cosmos 397 4.4 22:21:46 10° NNW 22:26:05 82° WSW 22:27:16 45° SSE
Terra 3.5 22:26:53 17° ENE 22:27:21 18° ENE 22:30:28 10° NNE
Cosmos 1733 Rocket 3.6 22:27:33 10° NNW 22:31:56 58° W 22:34:28 24° SSW
Meteor 2-10 Rocket 3.7 22:30:48 24° S 22:34:22 70° E 22:40:09 10° NNE
Cosmos 2360 Rocket 2.3 22:34:16 32° SSE 22:36:34 53° ESE 22:42:04 10° NNE
Cosmos 1862 Rocket 4.1 22:34:03 14° SSW 22:37:50 60° W 22:42:17 10° N
Lacrosse 4 Rocket 2.2 22:34:02 10° NW 22:38:12 47° WSW 22:39:39 34° SSW
SL-08 RB Rocket 4.0 22:37:52 46° E 22:38:32 50° ENE 22:42:58 10° N
Cosmos 1825 4.1 22:37:37 10° NNW 22:40:53 27° W 22:43:21 14° SW
Cosmos 2322 3.8 22:40:40 42° SSE 22:42:00 50° ESE 22:47:29 10° NE
Cosmos 1862 4.4 22:38:28 10° NNW 22:42:16 42° W 22:44:07 25° SSW
GENESIS II 4.5 22:40:55 10° SW 22:44:57 71° NW 22:49:02 10° NNE
NOAA 11 4.2 22:42:49 36° S 22:45:09 83° WSW 22:50:42 10° NNW
Cosmos 968 Rocket 3.5 22:40:06 10° NNW 22:45:17 66° ENE 22:46:23 52° ESE
YAOGAN 11 4.2 22:50:13 52° SSW 22:51:10 72° WSW 22:55:31 10° NNW
Cosmos 2266 Rocket 3.9 22:45:11 10° N 22:51:29 78° E 22:53:45 42° SSE
SL-16 R/B 3.1 22:47:09 10° SW 22:52:37 48° WNW 22:58:07 10° NNE
Okean 1-7 3.6 22:55:18 44° ENE 22:55:18 44° ENE 22:58:49 10° NNE
CZ-4C R/B 4.4 22:49:56 10° NNW 22:55:18 23° NNE 22:59:44 14° ENE
SPOT 5 2.8 22:54:50 55° S 22:55:55 82° WSW 23:00:40 10° NNW
Cosmos 1703 Rocket 3.4 22:57:22 79° SSE 22:57:35 84° E 23:02:03 10° N
Cosmos 2221 Rocket 3.7 23:00:03 59° ENE 23:00:03 59° ENE 23:03:56 10° NNE
Cosmos 2333 Rocket 4.4 23:04:53 12° ENE 23:04:53 12° ENE 23:05:27 10° ENE
ATLAS 5 CENTAUR R/B 2.3 22:58:20 10° NW 23:04:22 87° NE 23:05:54 55° SE
Nimbus 7 Rocket 4.3 23:00:06 10° NNE 23:06:03 84° ESE 23:08:11 43° S
Meteor 1-26 Rocket 4.4 23:06:23 31° SSW 23:09:10 71° WNW 23:14:57 10° N
SPOT 1/Viking Rocket 3.5 23:11:28 67° S 23:12:11 84° WSW 23:17:26 10° NNW
ARGOS 3.4 23:11:51 48° SSW 23:13:09 63° WSW 23:18:30 10° NNW
Cosmos 2278 Rocket 3.8 23:09:11 10° N 23:13:24 21° NE 23:14:18 20° ENE
CARTOSAT-1 4.5 23:15:41 39° NE 23:15:41 39° NE 23:18:55 10° N
Atlas Centaur 2 3.9 23:12:03 10° SW 23:16:54 30° SSW 23:16:54 30° SSW
Cosmos 1844 Rocket 2.9 23:20:13 10° NNW 23:25:41 53° ENE 23:25:44 53° ENE
Nadezhda 2 Rocket 4.5 23:20:41 10° N 23:27:09 90° E 23:28:14 65° S
MOS 1-B Rocket 4.3 23:26:13 43° SSW 23:27:51 56° WSW 23:33:26 10° NNW
Meteor 1-10 Rocket 4.2 23:35:21 74° E 23:35:21 74° E 23:41:05 10° NNE
Meteor 1-11 Rocket 4.3 23:33:26 10° N 23:38:03 43° NE 23:38:03 43° NE
SeaSat 1 3.6 23:39:59 32° WSW 23:40:08 32° WSW 23:44:34 10° NW
Cosmos 2219 Rocket 3.4 23:45:20 30° NE 23:45:20 30° NE 23:48:23 10° NE
H-2A R/B 3.0 23:44:20 45° NNW 23:44:20 45° NNW 23:47:26 10° NNW
Cosmos 1777 Rocket 4.1 23:38:11 10° NNW 23:43:02 71° WNW 23:43:02 71° WNW
S3M 4.1 23:51:34 59° ENE 23:51:34 59° ENE 23:56:59 10° NNE
NOSS 3-1 (C) 4.5 23:56:18 33° ENE 23:56:18 33° ENE 23:59:56 10° NE
